Theta_e
303 303 303 302 302 301 301 301 300 300 300 300 300 300 299 299 299 300 298 297 297 296 295 295 295 294 292 289 287 286 286 286 285 289 288 290 290 290 291 290 290 290 289
304 303 303 302 302 301 301 301 300 300 300 299 300 299 299 299 299 299 297 297 297 296 294 294 295 293 291 289 286 286 286 287 285 285 291 292 292 292 291 291 291 291 291
304 303 303 303 302 302 302 301 300 300 299 299 299 299 299 299 299 298 297 296 296 295 294 294 295 293 290 288 287 286 287 287 287 286 290 291 290 292 293 293 292 292 292
305 304 304 304 303 302 302 301 300 300 299 298 299 299 299 299 299 298 297 296 296 295 294 294 295 293 290 288 288 288 288 289 290 288 289 289 288 292 293 294 294 293 293
305 304 305 305 303 302 302 301 300 299 299 298 299 299 298 299 298 297 296 296 296 295 294 294 295 294 291 287 287 288 289 289 289 289 289 288 288 291 292 293 293 294 294
304 305 305 305 303 302 301 300 300 299 298 298 299 298 298 298 298 297 296 296 296 295 294 294 296 294 292 290 289 288 289 289 289 289 289 288 290 291 292 293 293 293 293
304 304 304 305 304 303 301 300 300 299 298 298 299 298 298 298 298 297 296 296 296 295 294 293 296 295 292 291 290 289 289 289 290 290 290 289 288 290 290 291 292 292 291
305 303 303 304 303 303 301 300 299 299 298 298 299 298 297 298 298 297 296 295 296 295 294 293 295 295 292 291 290 290 290 290 291 291 290 290 289 289 289 289 290 290 289
303 304 304 304 304 303 301 301 300 298 298 299 298 297 297 298 298 296 295 295 295 295 294 293 294 295 293 292 290 290 290 291 291 291 290 290 289 290 290 289 290 290 291
304 305 304 304 304 303 302 301 300 298 298 299 298 297 297 297 297 295 295 295 295 295 294 293 294 295 293 292 290 290 291 290 291 290 291 290 290 289 289 289 289 289 290
302 303 303 303 303 303 301 300 299 298 298 298 297 297 297 297 296 294 294 295 295 295 294 293 293 295 293 292 291 289 289 289 289 289 290 289 289 288 288 288 288 288 289
297 299 300 301 302 301 300 299 298 298 298 298 297 297 296 296 296 295 294 294 295 295 294 293 292 295 294 292 290 288 288 289 289 289 289 288 288 287 287 286 286 286 288
296 296 297 299 300 300 299 298 297 297 298 298 297 297 297 296 296 296 293 294 295 295 295 293 292 294 294 292 290 288 289 289 289 288 287 287 286 286 285 285 285 285 286
294 295 295 296 297 298 298 297 298 298 298 298 297 297 297 296 296 296 294 293 294 294 295 294 292 292 294 292 290 288 288 288 288 287 287 286 286 285 285 285 285 284 284
294 294 294 294 295 296 296 297 298 298 299 299 299 298 297 296 296 296 294 292 294 294 294 294 292 291 293 292 290 289 288 288 288 287 287 286 286 285 285 285 284 283 283
294 294 293 293 294 295 296 296 297 297 297 297 297 297 297 296 295 295 293 291 292 293 294 294 293 291 291 293 291 290 288 288 288 287 286 286 286 286 286 285 284 283 283
293 293 293 293 294 293 294 295 296 296 297 297 297 297 296 296 295 295 294 290 291 293 294 294 293 291 290 292 292 290 289 288 288 288 286 286 286 287 286 286 285 284 282
291 292 293 292 294 294 292 293 294 295 296 297 298 297 296 296 295 295 294 290 289 291 292 294 294 292 290 290 290 291 290 289 288 288 287 285 286 287 287 286 287 287 285
288 289 291 291 296 296 294 292 292 293 294 296 299 296 295 295 295 294 294 293 291 290 291 293 294 293 290 289 289 290 290 290 289 288 288 287 286 286 287 287 286 286 286
286 286 286 289 291 295 294 293 294 294 293 295 297 297 296 295 294 294 294 294 293 291 289 291 293 293 292 290 289 289 290 290 290 289 289 287 287 286 286 286 286 286 285
283 285 285 285 287 289 291 289 291 295 294 297 300 297 296 295 295 294 294 294 295 294 291 290 292 293 293 291 290 289 289 291 290 289 290 289 288 288 287 286 285 285 285
278 279 283 283 284 286 288 289 288 291 297 294 294 295 295 293 294 294 294 295 294 294 293 289 290 292 292 292 290 289 288 290 291 290 290 289 289 288 288 287 286 286 285
277 277 278 282 283 286 286 288 288 289 292 294 291 293 295 293 294 294 294 295 294 294 293 291 288 290 291 292 291 289 288 288 290 290 290 290 289 289 288 288 288 287 286
276 276 276 279 280 282 285 285 285 287 290 292 290 292 295 293 293 293 294 295 294 293 293 292 289 288 289 291 291 289 288 288 288 290 289 290 290 289 288 286 284 285 286
275 275 274 275 277 279 283 283 284 286 287 289 290 291 293 293 293 292 293 295 295 293 293 292 290 289 291 289 291 290 289 288 287 287 288 289 289 289 288 284 283 283 282
273 273 274 273 276 277 281 282 284 285 286 287 289 290 292 292 292 291 290 293 294 293 292 292 290 291 291 288 290 290 288 288 287 287 286 287 288 288 286 283 283 282 282
Wind_Speed
35 35 35 35 36 35 35 32 31 28 25 22 20 19 17 16 16 16 16 18 20 23 26 29 29 28 28 24 23 23 25 23 33 40 39 41 43 42 40 38 35 32 31
32 32 32 32 33 36 35 34 32 30 26 23 21 20 19 18 17 16 16 17 20 24 27 28 29 27 27 23 21 22 23 24 26 36 39 41 42 40 40 39 34 28 26
29 29 30 31 34 36 36 34 33 30 27 25 23 21 19 19 18 16 16 17 20 23 26 28 28 27 24 22 20 20 22 25 27 31 41 41 44 41 41 39 37 29 16
29 30 31 32 34 35 34 35 34 31 29 26 24 22 21 20 18 16 16 16 19 22 25 27 28 27 23 21 20 21 22 26 27 31 38 44 45 38 33 37 36 30 17
32 33 30 30 33 34 35 35 33 32 29 27 25 24 22 21 18 16 16 17 18 21 24 25 27 27 22 19 18 19 22 25 29 33 38 41 41 39 35 29 30 29 19
36 34 31 30 33 35 35 35 34 33 31 29 27 24 23 21 18 16 16 16 18 22 24 24 26 27 23 20 18 18 17 21 27 29 34 36 35 35 32 29 26 26 17
45 41 36 33 34 35 36 36 36 35 32 30 27 25 23 21 19 17 15 15 17 22 24 25 26 27 23 19 18 16 17 18 20 25 28 29 32 33 31 26 21 17 13
42 45 42 37 36 35 37 37 37 35 33 31 28 25 24 22 20 17 16 16 16 20 24 25 27 27 23 19 18 16 17 14 17 21 23 27 27 27 23 20 18 13 9
36 41 45 42 39 37 39 39 38 36 34 32 29 26 25 23 21 17 17 15 15 18 21 23 25 27 25 18 16 15 13 14 14 19 20 24 24 21 19 16 15 12 9
37 37 42 46 42 39 40 39 37 36 33 31 28 27 25 23 22 19 17 15 14 17 19 21 23 25 23 20 15 15 14 17 18 17 18 18 20 17 15 12 11 9 6
26 32 37 42 39 39 38 37 36 34 33 31 29 28 27 24 23 20 18 15 14 16 18 19 20 22 20 18 15 12 13 14 16 17 19 16 14 13 13 12 9 8 8
19 24 30 34 37 38 37 36 35 35 34 32 31 30 28 26 24 22 19 17 15 14 16 18 18 21 20 18 15 11 10 12 13 14 14 11 11 13 14 14 11 9 7
15 14 21 26 32 35 36 36 36 36 35 34 33 30 29 26 25 23 20 19 16 14 15 16 16 17 18 17 15 11 10 10 10 9 9 9 11 13 14 12 9 7 6
15 11 14 22 28 32 34 36 37 38 37 34 32 30 27 27 26 24 22 20 17 15 15 15 15 15 16 15 14 11 9 7 4 5 6 8 10 11 10 10 7 7 11
14 12 10 15 23 29 33 35 37 35 32 30 28 25 24 26 24 21 21 21 18 17 15 14 13 13 13 14 12 9 7 3 2 3 4 5 7 8 8 7 5 7 17
20 14 13 12 15 22 29 34 36 35 32 30 28 25 23 23 22 22 23 23 21 19 17 14 12 10 10 10 9 8 5 2 1 2 3 4 7 7 7 7 10 14 21
21 21 15 17 16 17 23 31 35 35 34 32 30 27 26 25 24 25 25 25 25 23 20 15 12 9 8 8 6 5 4 2 1 4 3 3 7 6 7 10 13 18 23
20 21 22 17 16 20 21 26 31 37 36 32 30 29 29 28 28 28 27 28 30 29 23 17 12 10 8 7 6 4 3 2 3 4 5 3 6 9 9 11 13 15 20
22 18 23 25 18 19 23 28 29 33 36 33 31 30 29 29 31 31 33 35 33 30 23 20 15 11 10 8 8 5 5 5 5 5 6 6 7 8 8 8 11 14 17
26 22 20 24 25 23 23 29 31 33 33 31 32 32 31 30 34 37 41 39 36 33 27 23 19 15 12 9 8 8 6 7 7 8 8 8 10 10 8 9 10 14 17
27 30 25 22 23 24 26 31 35 34 33 33 35 35 32 34 34 36 39 41 39 34 30 25 22 18 15 12 10 10 9 9 10 12 12 12 12 12 10 9 11 15 16
29 29 29 25 23 21 24 29 33 34 34 33 37 34 30 32 33 35 37 36 37 33 29 26 25 20 17 14 11 11 12 11 12 14 16 17 16 14 12 12 15 17 19
31 31 31 29 26 24 26 26 30 30 32 33 38 34 30 35 34 35 37 34 33 33 31 29 28 24 20 18 15 13 13 11 12 14 15 17 18 17 16 16 17 20 20
30 31 31 28 28 24 25 26 29 26 28 30 38 34 33 33 32 33 32 31 32 33 34 32 30 25 23 21 18 16 16 17 16 16 16 17 19 20 20 19 18 19 20
30 31 31 30 28 26 22 23 22 24 25 31 35 32 33 30 31 31 32 32 33 33 34 35 33 28 26 24 21 18 18 17 18 18 19 20 20 20 20 20 20 21 19
31 32 34 35 31 32 28 26 21 15 25 30 30 30 31 31 29 28 28 30 30 32 34 35 35 33 29 26 24 22 20 20 20 20 20 22 23 23 23 21 21 19 18
Wind_Direction
227 230 232 233 234 234 238 241 243 246 251 259 259 259 258 254 257 269 284 296 309 319 324 326 330 326 325 321 315 312 305 300 291 320 326 332 329 329 325 323 319 311 294
228 231 234 235 234 235 239 242 243 246 250 255 255 254 253 251 255 267 282 297 312 321 326 329 331 327 328 320 316 315 308 311 304 307 327 331 333 339 335 330 328 317 305
228 231 234 235 234 237 240 242 243 244 248 251 250 251 250 249 254 266 282 300 314 321 328 331 332 327 326 320 318 317 317 315 313 312 320 330 335 343 339 342 344 341 325
228 231 235 238 239 240 242 241 241 242 245 247 247 248 247 247 252 265 282 299 313 323 329 330 334 328 319 316 317 319 317 319 322 324 327 327 330 336 338 343 346 352 343
233 234 238 246 246 243 241 238 238 239 242 243 242 243 244 244 251 264 281 297 313 324 329 333 337 329 315 299 306 311 311 318 326 331 324 323 327 330 327 333 338 341 339
237 238 241 248 247 243 239 235 236 237 238 238 239 241 241 242 249 259 274 295 313 322 330 336 337 330 317 292 299 297 303 311 319 323 319 321 326 330 329 324 328 335 339
246 243 244 248 247 243 238 234 235 236 236 235 237 238 238 239 246 258 275 294 309 321 328 337 339 333 321 300 299 298 304 307 318 318 322 322 321 327 328 326 325 334 336
257 249 247 248 246 241 236 234 235 235 234 233 236 236 235 238 245 255 271 285 307 320 328 337 338 336 326 301 300 310 312 321 324 325 328 323 321 324 334 335 334 335 341
263 255 253 252 247 239 235 233 233 232 229 230 233 234 236 237 243 250 262 279 303 316 327 334 337 335 329 310 298 305 313 318 321 322 329 327 324 328 332 334 325 327 339
257 257 258 252 245 240 237 233 232 229 227 230 232 234 235 234 242 247 258 272 293 310 324 330 335 334 332 317 304 306 306 308 315 327 332 332 331 339 348 353 352 344 4
260 256 256 249 242 240 236 232 230 225 225 227 230 232 235 235 239 245 253 265 282 301 317 329 334 333 334 318 306 301 302 310 321 330 331 334 339 353 8 12 7 351 329
282 269 255 244 236 235 231 227 224 221 223 225 229 231 234 234 236 243 248 258 270 291 309 324 333 332 336 333 319 300 307 312 320 323 329 336 359 6 16 13 14 17 26
297 298 273 245 237 233 226 222 218 219 222 226 229 232 235 235 238 241 245 252 263 280 300 317 330 333 337 339 333 319 313 308 314 335 338 350 16 18 13 15 17 34 48
307 296 282 256 236 227 224 221 219 220 223 227 231 234 237 238 240 240 241 246 254 270 287 305 324 331 337 341 343 335 334 325 333 356 360 7 25 25 23 19 22 71 78
329 301 288 267 242 232 228 225 224 227 231 234 239 241 244 243 249 251 247 246 251 261 275 293 314 329 336 340 341 337 330 345 23 35 43 24 34 31 33 12 19 90 95
335 326 289 266 261 249 239 235 231 232 235 237 239 241 243 245 239 241 243 244 245 252 261 276 297 322 326 332 327 333 327 339 70 83 63 47 47 37 60 79 104 109 107
323 314 308 277 256 256 254 246 242 239 238 239 241 242 245 246 243 241 240 240 242 246 251 259 276 299 305 308 317 310 322 294 150 110 102 89 78 68 80 107 116 121 120
304 298 293 293 268 260 262 257 251 250 245 242 246 247 248 247 242 241 237 235 236 241 242 249 259 277 284 288 294 277 263 250 200 143 130 142 119 125 127 134 125 123 129
299 300 289 282 274 268 268 264 255 251 249 247 250 250 246 246 242 237 237 237 240 242 241 244 245 253 268 269 273 260 231 216 205 191 160 157 151 149 146 154 151 146 142
294 295 287 282 277 259 258 264 256 254 253 251 256 250 243 237 236 231 233 235 235 237 235 235 239 241 251 259 260 258 228 220 199 192 181 170 155 155 170 166 166 163 156
293 289 291 285 272 268 261 269 263 253 256 251 243 251 244 239 237 235 234 236 238 235 234 231 233 235 239 246 247 248 233 214 204 189 185 178 167 162 164 165 164 166 164
294 287 280 279 274 268 262 263 267 260 252 260 256 250 243 242 237 236 238 237 239 237 233 230 232 230 236 241 239 236 233 216 207 197 185 183 177 170 167 161 158 160 161
291 286 281 272 276 271 268 262 265 260 254 250 256 248 238 242 238 235 237 237 235 232 227 225 226 225 227 229 230 226 225 219 206 202 193 185 179 172 165 162 161 161 162
284 282 282 276 273 270 266 263 263 262 259 253 254 245 241 244 242 241 239 238 236 229 222 219 220 219 227 227 225 222 217 212 201 195 192 191 182 174 169 165 164 167 166
278 276 275 270 263 260 256 255 268 271 265 256 252 245 246 246 243 246 246 237 232 226 219 215 213 212 225 224 221 219 218 216 208 196 190 187 187 181 173 168 166 166 172
273 272 273 273 272 266 259 255 252 257 267 261 252 246 245 245 243 244 246 239 226 221 215 212 207 211 215 219 216 214 212 210 210 200 192 189 185 181 178 175 172 172 175